Weather History for Phoenix-Mesa Gateway Airport, AZ

Change the Weather History Date:

Friday, June 14, 2013

  Actual Average Record
Temperature  
Mean Temperature 88 °F -  
Max Temperature 100 °F 98 °F 107 °F (2000)
Min Temperature 77 °F 71 °F 66 °F (2001)
Cooling Degree Days 24    
Growing Degree Days 38 (Base 50)    
Moisture  
Dew Point 41 °F    
Average Humidity 21    
Maximum Humidity 32    
Minimum Humidity 11    
Precipitation  
Precipitation 0.00 in - - ()
Sea Level Pressure  
Sea Level Pressure 29.81 in    
Wind  
Wind Speed 4 mph (East)    
Max Wind Speed 12 mph    
Max Gust Speed -    
Visibility 12 miles    
Events      
Averages and records for this station are not official NWS values.
T = Trace of Precipitation, MM = Missing Value Source: NWS Daily Summary

Daily Weather History Graph

Daily Weather History Graph

Search for Another Location

Airport:

Trip Planner

Search our weather history database for the weather conditions in past years. The results will help you decide how hot, cold, wet, or windy it might be!

Date:

Astronomy

Jun. 14, 2013 Rise Set
Actual Time 5:16 AM MST 7:37 PM MST
Civil Twilight 4:47 AM MST 8:06 PM MST
Nautical Twilight 4:12 AM MST 8:41 PM MST
Astronomical Twilight 3:33 AM MST 9:20 PM MST
Moon 10:40 AM MST (6/14) 11:31 PM MST (6/14)
Length of Visible Light 15h 18m
Length of Day
14h 20m
Waxing Crescent, 31% of the Moon is Illuminated
Jun 14
Waxing Crescent
Jun 16
First Quarter
Jun 23
Full
Jun 29
Last Quarter
Jul 8
New

Hourly Weather History & Observations

Time (MST) Temp. Dew Point Humidity Pressure Visibility Wind Dir Wind Speed Gust Speed Precip Events Conditions
12:15 AM 84.2 °F 46.4 °F 27% 29.83 in 10.0 mi Calm Calm - N/A   Clear
12:35 AM 84.2 °F 44.6 °F 25% 29.83 in 10.0 mi Calm Calm - N/A   Clear
12:55 AM 86.0 °F 44.6 °F 23% 29.83 in 10.0 mi Calm Calm - N/A   Clear
1:15 AM 86.0 °F 44.6 °F 23% 29.83 in 10.0 mi Calm Calm - N/A   Clear
1:35 AM 82.4 °F 46.4 °F 28% 29.83 in 10.0 mi East 4.6 mph - N/A   Clear
1:55 AM 82.4 °F 46.4 °F 28% 29.83 in 10.0 mi East 5.8 mph - N/A   Clear
2:15 AM 80.6 °F 44.6 °F 28% 29.83 in 10.0 mi ESE 4.6 mph - N/A   Clear
2:35 AM 80.6 °F 44.6 °F 28% 29.83 in 10.0 mi ENE 5.8 mph - N/A   Clear
2:55 AM 78.8 °F 42.8 °F 28% 29.83 in 10.0 mi East 5.8 mph - N/A   Clear
3:15 AM 78.8 °F 42.8 °F 28% 29.83 in 10.0 mi East 5.8 mph - N/A   Clear
3:35 AM 78.8 °F 44.6 °F 30% 29.83 in 10.0 mi ESE 5.8 mph - N/A   Clear
3:55 AM 78.8 °F 44.6 °F 30% 29.84 in 10.0 mi ESE 5.8 mph - N/A   Clear
4:15 AM 78.8 °F 44.6 °F 30% 29.84 in 10.0 mi ESE 6.9 mph - N/A   Clear
4:35 AM 78.8 °F 44.6 °F 30% 29.84 in 10.0 mi East 3.5 mph - N/A   Clear
4:47 AM 78.8 °F 46.4 °F 32% 29.84 in 20.0 mi ESE 4.6 mph - N/A   Partly Cloudy
4:55 AM 77.0 °F 42.8 °F 29% 29.85 in 10.0 mi East 5.8 mph - N/A   Clear
5:15 AM 77.0 °F 44.6 °F 32% 29.85 in 10.0 mi East 6.9 mph - N/A   Clear
5:47 AM 78.8 °F 46.4 °F 32% 29.86 in 30.0 mi East 5.8 mph - N/A   Partly Cloudy
6:47 AM 80.6 °F 48.2 °F 32% 29.87 in 30.0 mi ESE 4.6 mph - N/A   Partly Cloudy
7:47 AM 87.8 °F 46.4 °F 24% 29.89 in 30.0 mi East 3.5 mph - N/A   Partly Cloudy
8:47 AM 89.6 °F 44.6 °F 21% 29.89 in 35.0 mi Calm Calm - N/A   Partly Cloudy
9:47 AM 93.2 °F 46.4 °F 20% 29.89 in 35.0 mi SW 4.6 mph - N/A   Partly Cloudy
10:55 AM 93.2 °F 42.8 °F 17% 29.88 in 35.0 mi Variable 4.6 mph - N/A   Partly Cloudy
11:47 AM 98.6 °F 42.8 °F 15% 29.87 in 35.0 mi SW 5.8 mph - N/A   Partly Cloudy
12:47 PM 98.6 °F 37.4 °F 12% 29.85 in 35.0 mi WNW 9.2 mph - N/A   Partly Cloudy
1:50 PM 100.4 °F 37.4 °F 11% 29.82 in 35.0 mi WSW 9.2 mph - N/A   Partly Cloudy
2:52 PM 100.4 °F 35.6 °F 11% 29.79 in 35.0 mi WSW 11.5 mph - N/A   Partly Cloudy
3:47 PM 100.4 °F 37.4 °F 11% 29.77 in 35.0 mi WNW 5.8 mph - N/A   Partly Cloudy
4:47 PM 100.4 °F 39.2 °F 12% 29.74 in 30.0 mi Variable 3.5 mph - N/A   Partly Cloudy
5:47 PM 100.4 °F 39.2 °F 12% 29.73 in 30.0 mi WNW 9.2 mph - N/A   Partly Cloudy
6:55 PM 100.4 °F 37.4 °F 11% 29.73 in 30.0 mi North 5.8 mph - N/A   Partly Cloudy
7:47 PM 98.6 °F 35.6 °F 11% 29.74 in 20.0 mi NNW 5.8 mph - N/A   Partly Cloudy
7:55 PM 98.6 °F 35.6 °F 11% 29.74 in 10.0 mi North 4.6 mph - N/A   Clear
8:15 PM 95.0 °F 35.6 °F 12% 29.75 in 10.0 mi North 4.6 mph - N/A   Clear
8:35 PM 95.0 °F 35.6 °F 12% 29.75 in 10.0 mi NNE 4.6 mph - N/A   Clear
8:47 PM 93.2 °F 35.6 °F 13% 29.76 in 20.0 mi North 4.6 mph - N/A   Partly Cloudy
8:55 PM 93.2 °F 33.8 °F 12% 29.76 in 10.0 mi Calm Calm - N/A   Clear
9:15 PM 93.2 °F 35.6 °F 13% 29.77 in 10.0 mi NE 3.5 mph - N/A   Clear
9:35 PM 93.2 °F 35.6 °F 13% 29.77 in 10.0 mi NE 3.5 mph - N/A   Clear
9:52 PM 93.2 °F 35.6 °F 13% 29.78 in 20.0 mi North 3.5 mph - N/A   Partly Cloudy
9:55 PM 93.2 °F 35.6 °F 13% 29.78 in 10.0 mi North 3.5 mph - N/A   Clear
10:15 PM 89.6 °F 33.8 °F 14% 29.78 in 10.0 mi Calm Calm - N/A   Clear
10:35 PM 82.4 °F 41.0 °F 23% 29.78 in 10.0 mi SSE 4.6 mph - N/A   Clear
10:47 PM 84.2 °F 42.8 °F 23% 29.78 in 20.0 mi Variable 5.8 mph - N/A   Partly Cloudy
10:55 PM 86.0 °F 41.0 °F 20% 29.78 in 10.0 mi SW 5.8 mph - N/A   Clear
11:15 PM 84.2 °F 41.0 °F 22% 29.79 in 10.0 mi SW 4.6 mph - N/A   Clear
11:35 PM 82.4 °F 39.2 °F 21% 29.79 in 10.0 mi SSW 6.9 mph - N/A   Clear
11:50 PM 84.2 °F 39.2 °F 20% 29.79 in 20.0 mi SSW 5.8 mph - N/A   Partly Cloudy
11:55 PM 84.2 °F 37.4 °F 19% 29.79 in 10.0 mi SW 5.8 mph - N/A   Clear